[[{"header":{"parameterUnit":"m.s-1","parameterCategory":1,"la1":30.2991,"la2":30.254,"lo1":-89.0895,"lo2":-89.0444,"dy":0.0017,"dx":0.0017,"nx":28,"ny":28,"refTime":"2024-02-05T09:00:00:Z","depth":0,"parameterNumber":2,"parameterNumberName":"U-component_of_WINDS"},"data":[0,0,0,0,0,0,0,0,0,0,0,0,0,0,0,0,0,0,0,0,0,0,0,0,0,0,0,0,0,0,0,0,0,0,0,0,0,0,0,0,0,0,0,0,0,0,0,0,0,0,0,0,0,0,0,0,0,0,2.3428,2.3428,0,2.3428,2.3428,2.3428,2.3392,2.3391,2.339,2.3389,2.3388,2.3388,2.3389,0,0,0,0,0,0,0,0,0,0,0,0,0,2.3398,2.3398,2.3428,2.3428,2.3428,2.3428,2.3428,2.3428,2.3392,2.3391,2.3389,2.3388,2.3387,2.3388,2.3389,0,0,0,0,0,0,0,0,0,0,0,0,0,2.3406,2.3399,2.3428,2.341,2.3409,2.3428,2.3428,2.3428,2.3392,2.339,2.3389,2.3388,2.3387,2.3388,2.339,2.3426,0,0,2.3393,2.3394,0,0,0,0,0,0,0,0,2.3405,2.3407,2.3413,2.3411,2.341,2.3408,2.3417,2.3428,2.3392,2.3398,2.3389,2.3387,2.3396,2.3396,2.3399,2.3426,2.3426,2.3394,2.3394,2.3395,2.3395,0,0,0,0,0,0,0,2.3405,2.3407,2.3428,2.3413,2.3411,2.3402,2.3402,2.3419,2.3405,2.3398,2.3395,2.3395,2.3394,2.3398,2.3399,2.3426,2.3394,2.3395,2.3396,2.3396,2.3486,2.3487,0,0,0,0,0,0,2.3407,2.3406,2.3428,2.3428,2.3404,2.3404,2.3403,2.341,2.3405,2.3402,2.3397,2.3394,2.3397,2.3397,2.3399,2.3443,2.3395,2.3396,2.3397,2.3484,2.3486,2.3488,0,0,0,0,0,0,2.3406,2.3409,2.3428,2.3417,2.3418,2.3406,2.3414,2.3411,2.3415,2.3404,2.3401,2.3403,2.3395,2.3397,2.342,2.3442,2.3397,2.3398,2.3482,2.3485,2.3487,2.353,0,0,0,0,0,0,2.3405,2.3409,2.3423,2.3417,2.3419,2.345,2.3415,2.3412,2.3417,2.3413,2.3409,2.3407,2.3394,2.3419,2.3422,2.3443,2.3399,2.348,2.3483,2.3486,2.3527,2.3534,2.354,0,0,0,0,0,2.3405,2.3434,2.3423,2.3426,2.3436,2.3451,2.3452,2.3437,2.3419,2.3433,2.3426,2.3407,2.344,2.3421,2.3424,2.3447,2.3479,2.3483,2.3486,2.3524,2.3533,2.354,0,0,0,0,0,0,2.3441,2.3433,2.3421,2.345,2.3452,2.3445,2.3461,2.3447,2.3453,2.3449,2.343,2.343,2.3457,2.3454,2.3434,2.3483,2.3456,2.346,2.3484,2.3492,2.3498,2.3498,2.34,0,0,0,0,0,2.3453,2.3466,2.3458,2.3484,2.3486,2.3474,2.348,2.3469,2.3469,2.347,2.3465,2.3466,2.3477,2.3484,2.3493,2.3527,2.3526,2.3544,2.355,2.3556,2.356,2.3579,2.3587,2.35,2.35,2.35,0,0,2.3476,2.3474,2.3483,2.3491,2.3491,2.3506,2.3474,2.349,2.3501,2.3472,2.3494,2.3491,2.3492,2.3521,2.3533,2.3519,2.3584,2.356,2.3565,2.3566,2.3583,2.3591,2.3599,2.3502,2.3502,2.3501,0,0,2.3527,2.3526,2.3548,2.355,2.3551,2.3543,2.3549,2.3545,2.3542,2.3564,2.3543,2.3556,2.3574,2.3576,2.3579,2.3634,2.3617,2.3637,2.3671,2.369,2.3697,2.3703,2.3723,2.373,2.3641,2.3641,2.3641,0,2.3556,2.3577,2.3562,2.358,2.3585,2.3561,2.3584,2.3586,2.3589,2.3594,2.3578,2.3602,2.3601,2.3631,2.3644,2.3647,2.3654,2.3637,2.3697,2.3703,2.3708,2.3727,2.3735,2.3644,2.3643,2.3643,2.3643,0,2.3613,2.3628,2.3646,2.3652,2.3659,2.368,2.3668,2.3677,2.3666,2.366,2.3684,2.3682,2.3691,2.3697,2.3686,2.3726,2.3718,2.37,2.3672,2.3719,2.3737,2.3744,2.3647,2.3646,2.3646,2.3645,0,0,2.3685,2.3684,2.3691,2.3694,2.3694,2.3706,2.3726,2.3736,2.3744,2.3749,2.3765,2.3783,2.3767,2.3771,2.376,2.3776,2.3821,2.3757,2.3756,2.3769,2.3867,2.3881,2.3889,2.381,2.3812,2.3813,2.3867,0,2.3735,2.3769,2.3757,2.3792,2.3807,2.3785,2.3803,2.3806,2.3802,2.3814,2.3809,2.3822,2.3799,2.3802,2.3817,2.3813,2.3841,2.3808,2.3826,2.3827,2.3827,2.3898,2.3912,2.3964,2.3874,2.3875,2.3876,0,2.3796,2.3805,2.3842,2.3842,2.3848,2.3864,2.3873,2.3884,2.3887,2.3883,2.3889,2.3875,2.3896,2.3869,2.3897,2.3876,2.3883,2.3882,2.3883,2.3884,2.3854,2.3902,2.398,2.3988,2.3887,2.3886,2.3885,0,2.3846,2.3866,2.3892,2.3895,2.3895,2.3908,2.3908,2.391,2.3918,2.3926,2.393,2.3941,2.3946,2.3955,2.3944,2.3925,2.3975,2.3946,2.3972,2.3973,2.3983,2.3983,2.4064,2.3988,2.3987,2.3987,2.3987,0,2.3903,2.3926,2.3914,2.393,2.3956,2.3943,2.397,2.3968,2.397,2.3986,2.3968,2.3982,2.3968,2.3981,2.3973,2.3999,2.4001,2.3999,2.3997,2.4001,2.4001,2.4005,2.4001,2.3989,2.3989,2.3989,2.3988,0,2.3962,2.3955,2.3981,2.3981,2.3981,2.4001,2.4,2.4015,2.401,2.403,2.4034,2.4027,2.4042,2.4033,2.4048,2.4043,2.4077,2.4069,2.4076,2.4074,2.4101,2.4098,2.4187,2.4198,2.4114,2.4115,2.4116,0,2.3999,2.4017,2.4019,2.4028,2.4031,2.4046,2.4054,2.4042,2.4051,2.4058,2.4072,2.4086,2.4097,2.4122,2.4118,2.4131,2.4124,2.4154,2.4125,2.4129,2.4125,2.4124,2.4126,2.4159,2.416,2.4161,2.4162,0,2.4065,2.4061,2.4073,2.4086,2.4096,2.4104,2.4111,2.412,2.4109,2.412,2.4136,2.4145,2.4162,2.4176,2.4187,2.4188,2.4174,2.4171,2.4178,2.4182,2.4186,2.4185,2.4092,2.4169,2.4168,2.4168,2.4167,2.4167,2.4114,2.413,2.4135,2.415,2.4154,2.4162,2.4177,2.4175,2.4188,2.4201,2.4194,2.4213,2.4218,2.4231,2.4234,2.4249,2.4237,2.4247,2.4249,2.4252,2.4256,2.4184,2.4251,2.4251,2.4251,2.4251,2.425,0,2.418,2.4183,2.4197,2.4208,2.4221,2.4207,2.4215,2.4226,2.4244,2.4249,2.4261,2.4281,2.4295,2.4293,2.4307,2.432,2.4314,2.4324,2.4323,2.4324,2.4266,2.4259,2.4329,2.4329,2.4329,2.4329,2.4329,2.4329,2.4216,2.4243,2.424,2.4269,2.4271,2.4291,2.4297,2.4304,2.4309,2.4332,2.4344,2.4344,2.4347,2.4361,2.4374,2.4373,2.4379,2.4392,2.4389,2.4335,2.4327,2.432,2.4313,2.4394,2.4394,2.4446,2.4446,2.4447]},{"header":{"parameterUnit":"m.s-1","parameterCategory":1,"la1":30.2991,"la2":30.254,"lo1":-89.0895,"lo2":-89.0444,"dy":0.0017,"dx":0.0017,"nx":28,"ny":28,"refTime":"2024-02-05T09:00:00:Z","depth":0,"parameterNumber":3,"parameterNumberName":"V-component_of_WINDS"},"data":[0,0,0,0,0,0,0,0,0,0,0,0,0,0,0,0,0,0,0,0,0,0,0,0,0,0,0,0,0,0,0,0,0,0,0,0,0,0,0,0,0,0,0,0,0,0,0,0,0,0,0,0,0,0,0,0,0,0,-5.0621,-5.0621,0,-5.0635,-5.0635,-5.0635,-5.0509,-5.0506,-5.0502,-5.0499,-5.0513,-5.0516,-5.052,0,0,0,0,0,0,0,0,0,0,0,0,0,-5.0484,-5.0487,-5.0621,-5.0621,-5.0621,-5.0635,-5.0635,-5.0635,-5.051,-5.0505,-5.0501,-5.0497,-5.0512,-5.0516,-5.052,0,0,0,0,0,0,0,0,0,0,0,0,0,-5.0525,-5.0488,-5.0621,-5.056,-5.0555,-5.0635,-5.0635,-5.0635,-5.0511,-5.0505,-5.05,-5.0495,-5.051,-5.0515,-5.0521,-5.066,0,0,-5.0538,-5.054,0,0,0,0,0,0,0,0,-5.0523,-5.053,-5.0569,-5.0564,-5.0559,-5.0565,-5.0592,-5.0644,-5.0512,-5.0527,-5.0499,-5.0493,-5.0534,-5.0537,-5.0552,-5.066,-5.0661,-5.0538,-5.0541,-5.0544,-5.0545,0,0,0,0,0,0,0,-5.052,-5.0529,-5.0626,-5.0569,-5.0563,-5.0532,-5.0532,-5.0601,-5.056,-5.0526,-5.0517,-5.052,-5.0531,-5.0547,-5.0551,-5.0661,-5.0538,-5.0543,-5.0546,-5.0548,-5.0885,-5.089,0,0,0,0,0,0,-5.0526,-5.0528,-5.0626,-5.0627,-5.0528,-5.0539,-5.0539,-5.0568,-5.0559,-5.0553,-5.0524,-5.0514,-5.054,-5.0545,-5.0551,-5.0714,-5.0544,-5.0549,-5.0552,-5.0879,-5.0886,-5.0892,0,0,0,0,0,0,-5.0523,-5.0536,-5.0625,-5.0575,-5.0584,-5.0547,-5.0581,-5.0571,-5.0587,-5.0558,-5.055,-5.0549,-5.0536,-5.0543,-5.0634,-5.0712,-5.0551,-5.0556,-5.0873,-5.0881,-5.0889,-5.104,0,0,0,0,0,0,-5.052,-5.0536,-5.0588,-5.0577,-5.0587,-5.0708,-5.0585,-5.0575,-5.0597,-5.0584,-5.0579,-5.0573,-5.0532,-5.0626,-5.0639,-5.0717,-5.056,-5.0865,-5.0877,-5.0887,-5.1028,-5.1052,-5.1073,0,0,0,0,0,-5.0515,-5.0629,-5.0591,-5.0604,-5.0652,-5.0713,-5.0719,-5.067,-5.0604,-5.0656,-5.0638,-5.0573,-5.0702,-5.0637,-5.065,-5.0731,-5.086,-5.0873,-5.0886,-5.1017,-5.1047,-5.1073,0,0,0,0,0,0,-5.065,-5.0627,-5.0584,-5.0698,-5.0709,-5.0692,-5.0756,-5.0704,-5.0733,-5.0719,-5.0657,-5.0657,-5.0758,-5.0753,-5.0681,-5.0865,-5.0769,-5.0785,-5.0865,-5.0893,-5.0916,-5.0915,-5.0565,0,0,0,0,0,-5.0693,-5.0745,-5.0722,-5.0824,-5.0832,-5.0794,-5.0819,-5.0781,-5.0789,-5.0792,-5.078,-5.0791,-5.0833,-5.0863,-5.09,-5.1026,-5.1023,-5.1088,-5.1111,-5.113,-5.1145,-5.1212,-5.124,-5.0934,-5.0934,-5.0934,0,0,-5.0783,-5.0776,-5.0813,-5.0852,-5.0855,-5.0911,-5.0798,-5.0861,-5.0902,-5.0802,-5.0887,-5.0879,-5.0886,-5.0995,-5.1042,-5.0994,-5.1229,-5.1146,-5.1162,-5.1166,-5.1228,-5.1257,-5.1283,-5.0943,-5.0941,-5.094,0,0,-5.0974,-5.0974,-5.106,-5.1066,-5.1074,-5.1047,-5.1068,-5.106,-5.1051,-5.1135,-5.1061,-5.1108,-5.1183,-5.1192,-5.1206,-5.1402,-5.1343,-5.1415,-5.1536,-5.1602,-5.1626,-5.1647,-5.1718,-5.1744,-5.143,-5.1431,-5.1431,0,-5.1084,-5.1165,-5.1111,-5.1179,-5.1199,-5.1111,-5.1198,-5.1207,-5.1226,-5.1242,-5.1187,-5.1279,-5.1278,-5.1388,-5.1436,-5.145,-5.1473,-5.1416,-5.1627,-5.1647,-5.1666,-5.1733,-5.176,-5.1439,-5.1438,-5.1437,-5.1437,0,-5.13,-5.1357,-5.1426,-5.1448,-5.1474,-5.1552,-5.151,-5.1544,-5.1504,-5.1483,-5.1571,-5.1566,-5.1602,-5.1625,-5.1586,-5.173,-5.17,-5.1637,-5.154,-5.1705,-5.1767,-5.1792,-5.1452,-5.1449,-5.1446,-5.1444,0,0,-5.1576,-5.1568,-5.1594,-5.1603,-5.1605,-5.1649,-5.1722,-5.1757,-5.1788,-5.1804,-5.1865,-5.193,-5.1872,-5.1889,-5.185,-5.1908,-5.2065,-5.1837,-5.1837,-5.1881,-5.2224,-5.2273,-5.2303,-5.2026,-5.203,-5.2034,-5.2224,0,-5.1763,-5.1889,-5.1843,-5.1972,-5.2025,-5.1943,-5.2007,-5.2015,-5.1999,-5.2041,-5.2021,-5.207,-5.1989,-5.1998,-5.2052,-5.2034,-5.2133,-5.202,-5.2082,-5.2085,-5.2084,-5.2335,-5.2386,-5.2566,-5.2248,-5.2252,-5.2255,0,-5.1998,-5.2025,-5.216,-5.2154,-5.2174,-5.2233,-5.2262,-5.2303,-5.2311,-5.2295,-5.2314,-5.2263,-5.2334,-5.2237,-5.2336,-5.226,-5.2282,-5.2278,-5.2283,-5.2288,-5.218,-5.2347,-5.2622,-5.2649,-5.2292,-5.2289,-5.2286,0,-5.2188,-5.2258,-5.2347,-5.2358,-5.2352,-5.2396,-5.2396,-5.2398,-5.2423,-5.2448,-5.2464,-5.2497,-5.2516,-5.2542,-5.2502,-5.2435,-5.2607,-5.2506,-5.2595,-5.2597,-5.2636,-5.2634,-5.2919,-5.2649,-5.2649,-5.2648,-5.2648,0,-5.2402,-5.2488,-5.2432,-5.2488,-5.2582,-5.2528,-5.2622,-5.2613,-5.2616,-5.2668,-5.2599,-5.2649,-5.2592,-5.2637,-5.2605,-5.2692,-5.2701,-5.269,-5.2681,-5.2697,-5.2699,-5.2711,-5.2698,-5.2656,-5.2654,-5.2653,-5.2651,0,-5.263,-5.2596,-5.2689,-5.2677,-5.2676,-5.2746,-5.2735,-5.2786,-5.2764,-5.2831,-5.2844,-5.281,-5.2859,-5.2821,-5.287,-5.2848,-5.2964,-5.2936,-5.2962,-5.2954,-5.3047,-5.3039,-5.335,-5.3389,-5.3094,-5.3097,-5.3099,0,-5.2769,-5.2833,-5.2829,-5.2859,-5.2864,-5.2913,-5.2938,-5.2888,-5.2917,-5.2931,-5.2981,-5.3024,-5.3056,-5.3139,-5.3119,-5.3156,-5.3129,-5.3236,-5.3134,-5.3149,-5.3132,-5.313,-5.3136,-5.3257,-5.326,-5.3263,-5.3265,0,-5.3021,-5.3001,-5.304,-5.3074,-5.3106,-5.313,-5.3149,-5.3177,-5.3126,-5.3162,-5.3213,-5.3238,-5.3288,-5.3332,-5.3362,-5.3361,-5.3306,-5.3298,-5.332,-5.3338,-5.3351,-5.3346,-5.3019,-5.3291,-5.3288,-5.3286,-5.3285,-5.3284,-5.3209,-5.3263,-5.3268,-5.3314,-5.3323,-5.3343,-5.339,-5.3375,-5.3416,-5.3453,-5.3421,-5.3482,-5.3488,-5.3523,-5.3529,-5.3575,-5.3531,-5.3564,-5.3573,-5.3582,-5.3596,-5.3343,-5.358,-5.358,-5.3579,-5.3578,-5.3578,0,-5.3458,-5.3457,-5.3501,-5.3529,-5.3566,-5.351,-5.3528,-5.3562,-5.3617,-5.3628,-5.3662,-5.372,-5.3763,-5.3746,-5.3784,-5.3825,-5.38,-5.3837,-5.3834,-5.3835,-5.3632,-5.3609,-5.3856,-5.3856,-5.3856,-5.3856,-5.3856,-5.3856,-5.3591,-5.368,-5.3662,-5.3754,-5.3752,-5.3812,-5.3827,-5.3845,-5.3853,-5.3922,-5.3958,-5.3947,-5.3947,-5.3984,-5.4022,-5.4015,-5.4033,-5.4079,-5.4064,-5.3876,-5.3849,-5.3823,-5.3801,-5.4083,-5.4084,-5.4263,-5.4264,-5.4266]}]]